Ogden, KS

7:22 PM CDT on September 25, 2016 (GMT -0500)
Manhattan Regional

Weather History for KMHK - February, 2013

Change the Weather History Date:

Thursday, February 14, 2013

  Actual Average Record
Temperature  
Mean Temperature 39 °F 33 °F  
Max Temperature 50 °F 45 °F 68 °F (1999)
Min Temperature 27 °F 21 °F 0 °F (2007)
Degree Days  
Heating Degree Days 26 32  
Month to date heating degree days 381 472  
Since 1 July heating degree days 3311 3738  
Cooling Degree Days 0 0  
Month to date cooling degree days 0 0  
Year to date cooling degree days 0 0  
Moisture  
Dew Point 25 °F    
Average Humidity 61    
Maximum Humidity 85    
Minimum Humidity 36    
Precipitation  
Precipitation 0.00 in 0.04 in 0.45 in (2003)
Month to date precipitation 0.64 0.50  
Year to date precipitation 1.33 1.15  
Sea Level Pressure  
Sea Level Pressure 30.09 in    
Wind  
Wind Speed 6 mph (WNW)    
Max Wind Speed 20 mph    
Max Gust Speed 29 mph    
Visibility 10 miles    
Events      
T = Trace of Precipitation, MM = Missing Value Source: NWS Daily Summary

Daily Weather History Graph

Daily Weather History Graph

Search for Another Location

Airport or City:

Trip Planner

Search our weather history database for the weather conditions in past years. The results will help you decide how hot, cold, wet, or windy it might be!

Date:

Astronomy

Feb. 14, 2013 Rise Set
Actual Time 7:19 AM CST 6:03 PM CST
Civil Twilight 6:51 AM CST 6:30 PM CST
Nautical Twilight 6:20 AM CST 7:01 PM CST
Astronomical Twilight 5:49 AM CST 7:32 PM CST
Moon 9:24 AM CST (2/14) 11:04 PM CST (2/14)
Length of Visible Light 11h 38m
Length of Day
10h 43m
Waxing Crescent, 22% of the Moon is Illuminated
Feb 14
Waxing Crescent
Feb 17
First Quarter
Feb 25
Full
Mar 4
Last Quarter
Mar 11
New

Hourly Weather History & Observations

Time (CST) Temp. Windchill Dew Point Humidity Pressure Visibility Wind Dir Wind Speed Gust Speed Precip Events Conditions
12:52 AM 35.1 °F 29.3 °F 25.0 °F 67% 29.89 in 10.0 mi SW 6.9 mph - N/A   Clear
1:52 AM 33.8 °F 29.6 °F 24.8 °F 70% 29.89 in 10.0 mi WSW 4.6 mph - N/A   Clear
2:52 AM 35.6 °F - 24.8 °F 65% 29.90 in 10.0 mi Calm Calm - N/A   Scattered Clouds
3:52 AM 32.0 °F 27.5 °F 25.0 °F 75% 29.93 in 10.0 mi SW 4.6 mph - N/A   Clear
4:52 AM 30.0 °F 24.1 °F 25.0 °F 82% 29.96 in 10.0 mi SSW 5.8 mph - N/A   Clear
5:52 AM 30.2 °F 26.7 °F 26.6 °F 86% 29.96 in 10.0 mi SW 3.5 mph - N/A   Clear
6:52 AM 30.0 °F 26.5 °F 26.1 °F 85% 30.02 in 10.0 mi SW 3.5 mph - N/A   Clear
7:52 AM 30.9 °F 27.5 °F 27.0 °F 85% 30.03 in 10.0 mi SW 3.5 mph - N/A   Clear
8:52 AM 39.0 °F 36.8 °F 30.9 °F 73% 30.07 in 10.0 mi Variable 3.5 mph - N/A   Clear
9:52 AM 46.0 °F 43.1 °F 30.9 °F 56% 30.08 in 10.0 mi NNW 5.8 mph - N/A   Clear
10:52 AM 46.0 °F 42.5 °F 30.9 °F 56% 30.10 in 10.0 mi NW 6.9 mph - N/A   Clear
11:52 AM 46.9 °F - 30.9 °F 54% 30.10 in 10.0 mi WNW 5.8 mph - N/A   Clear
12:52 PM 48.0 °F - 30.0 °F 50% 30.09 in 10.0 mi WNW 5.8 mph - N/A   Clear
1:52 PM 48.9 °F - 28.9 °F 46% 30.09 in 10.0 mi WNW 8.1 mph - N/A   Scattered Clouds
2:52 PM 50.0 °F - 24.1 °F 36% 30.10 in 10.0 mi WNW 10.4 mph 18.4 mph N/A   Mostly Cloudy
3:52 PM 48.9 °F - 23.0 °F 36% 30.12 in 10.0 mi NW 10.4 mph 20.7 mph N/A   Clear
4:52 PM 48.0 °F - 23.0 °F 37% 30.13 in 10.0 mi NW 6.9 mph - N/A   Mostly Cloudy
5:52 PM 45.0 °F 41.8 °F 24.1 °F 44% 30.15 in 10.0 mi North 5.8 mph - N/A   Mostly Cloudy
6:52 PM 44.1 °F 40.1 °F 23.0 °F 43% 30.18 in 10.0 mi Variable 6.9 mph - N/A   Overcast
7:52 PM 42.1 °F 37.7 °F 19.9 °F 41% 30.19 in 10.0 mi Variable 6.9 mph - N/A   Clear
8:52 PM 37.9 °F 30.9 °F 21.0 °F 51% 30.23 in 10.0 mi NNW 10.4 mph 25.3 mph N/A   Clear
9:52 PM 35.6 °F 29.9 °F 21.2 °F 56% 30.24 in 10.0 mi Variable 6.9 mph 16.1 mph N/A   Clear
10:41 PM 33.8 °F 25.8 °F 23.0 °F 65% 30.25 in 10.0 mi NNW 10.4 mph 20.7 mph N/A   Mostly Cloudy
10:52 PM 34.0 °F 27.2 °F 23.0 °F 64% 30.28 in 10.0 mi NW 8.1 mph 21.9 mph N/A   Overcast
11:52 PM 32.0 °F 23.0 °F 23.0 °F 69% 30.30 in 10.0 mi NNW 11.5 mph 24.2 mph N/A   Overcast